Flag for United Kingdom Weather past 2 weeks in Milton Keynes, England, United Kingdom

Now
55 °F

Passing clouds.


Feels Like: 52 °F
Forecast: 37 / 50 °F
Wind: 13 mph from East

Location: Cranfield

Current Time: Apr 18, 2015 at 12:48:35 PM

Latest Report: Apr 18, 2015 at 12:20 PM


Visibility: N/A

Pressure: 30.36 "Hg

Humidity: 55%

Dew point: 39 °F

Location of Milton KeynesLocation

Historic Weather in Milton Keynes — Graph

°F

Milton Keynes temperature yesterday

Maximum temperature yesterday: 55 °F (at 3:20 PM)
Minimum temperature yesterday: 41 °F (at 7:50 AM)
Average temperature yesterday: 51 °F

Past Weeks' High & Low Weather Summary

 TemperatureHumidityPressure
High70 °F (Apr 15, 12:50 PM)100% (Apr 3, 11:20 AM)30.63 "Hg (Apr 3, 11:20 AM)
Low36 °F (Apr 13, 7:20 AM)33% (Apr 10, 3:20 PM)29.86 "Hg (Apr 11, 8:50 AM)
Average54 °F70%30.23 "Hg
* Reported Apr 3 11:20 AM — Apr 18 11:50 AM, Milton Keynes, Weather by CustomWeather, © 2015

Note: Actual official high and low records may vary slightly from our data, if they occured in-between our weather recording intervals... More about our weather records

Advertising

Milton Keynes weather history for previous 24 hours

 ConditionsComfort  
Time TempWeatherWind HumidityBarometerVisibility
11:50 AM
Sat, Apr 18
54 °FPassing clouds.16 mph63%30.39 "HgN/A
11:20 AM52 °FPassing clouds.16 mph67%30.39 "HgN/A
10:50 AM52 °FPassing clouds.15 mph67%30.39 "HgN/A
10:20 AM50 °FPassing clouds.15 mph71%30.39 "HgN/A
9:50 AM48 °FPassing clouds.15 mph71%30.39 "HgN/A
9:20 AM46 °FPassing clouds.16 mph76%30.39 "HgN/A
8:50 AM45 °FScattered clouds.15 mph81%30.36 "HgN/A
8:20 AM41 °FPartly sunny.14 mph93%30.36 "Hg4 mi
5:50 PM
Fri, Apr 17
54 °FPassing clouds.15 mph58%30.18 "HgN/A
5:20 PM54 °FPassing clouds.13 mph54%30.18 "HgN/A
4:50 PM54 °FPassing clouds.16 mph58%30.18 "HgN/A
4:20 PM55 °FPassing clouds.13 mph55%30.18 "HgN/A
3:50 PM54 °FPassing clouds.10 mph58%30.18 "HgN/A
3:20 PM55 °FPassing clouds.13 mph55%30.18 "HgN/A
2:50 PM54 °FPassing clouds.14 mph54%30.15 "HgN/A
2:20 PM54 °FPassing clouds.15 mph54%30.15 "HgN/A
1:50 PM52 °FPassing clouds.16 mph58%30.15 "HgN/A
1:20 PM54 °FPassing clouds.15 mph58%30.15 "HgN/A
12:50 PM52 °FPassing clouds.15 mph62%30.15 "HgN/A
12:20 PM54 °FSunny.15 mph58%30.15 "Hg10 mi
Weather by CustomWeather, © 2015

See weather overviewHow to use our weather pages